This demonstration page uses our WeatherBlox Daily Observations layout. Learn more.

Left ArrowRight Arrow

34.02893, -84.19858

Hourly Observations for February 2, 2017

Temp ( °F °C ) Dew Point ( °F °C ) Humidity (%) Winds ( mph kmh ) Pressure ( in mb ) Visibility ( mi km ) Precip ( " mm )
12:53 am 00:53 Clear 51 10.6 43 6.1 74 74 SSW 7 11 30.11 1020 10 16 0.00 0.00
1:53 am 01:53 Clear 51 10.6 42 5.6 71 71 SW 5 7 30.11 1020 10 16 0.00 0.00
2:53 am 02:53 Clear 50 10 42 5.6 74 74 SW 3 6 30.11 1020 10 16 0.00 0.00
3:53 am 03:53 Clear 50 10 42 5.6 74 74 SW 3 6 30.11 1020 10 16 0.00 0.00
4:53 am 04:53 Clear 51 10.6 42 5.6 71 71 WSW 3 6 30.11 1020 10 16 0.00 0.00
5:53 am 05:53 Clear 50 10 42 5.6 74 74 SW 3 6 30.12 1020 10 16 0.00 0.00
6:53 am 06:53 Clear 49 9.4 42 5.6 77 77 W 3 6 30.14 1021 10 16 0.00 0.00
7:53 am 07:53 Sunny 48 8.9 43 6.1 83 83 WSW 5 7 30.17 1022 10 16 0.00 0.00
8:53 am 08:53 Sunny 53 11.7 45 7.2 74 74 SW 6 9 30.18 1022 10 16 0.00 0.00
9:53 am 09:53 Sunny 58 14.4 46 7.8 65 65 WNW 8 13 30.18 1022 10 16 0.00 0.00
10:53 am 10:53 Partly Cloudy 61 16.1 47 8.3 60 60 VRB 3 6 30.20 1023 10 16 0.00 0.00
11:53 am 11:53 Sunny 66 18.9 50 10 56 56 SW 8 13 30.17 1022 10 16 0.00 0.00
12:53 pm 12:53 Partly Cloudy 67 19.4 49 9.4 53 53 WNW 10 17 30.14 1021 10 16 0.00 0.00
1:53 pm 13:53 Cloudy 65 18.3 48 8.9 54 54 WNW 8 13 30.14 1021 10 16 0.00 0.00
2:53 pm 14:53 Cloudy 62 16.7 47 8.3 58 58 WNW 12 19 30.14 1021 10 16 0.00 0.00
3:53 pm 15:53 Cloudy with Light Rain 56 13.3 49 9.4 77 77 W 5 7 30.16 1021 7 11 0.01 0.25
4:53 pm 16:53 Cloudy with Light Rain 57 13.9 48 8.9 72 72 W 6 9 30.17 1022 9 14 0.00 0.03
5:53 pm 17:53 Cloudy 54 12.2 45 7.2 72 72 NW 7 11 30.18 1022 10 16 0.00 0.03
6:00 pm 18:00 Cloudy 54 12.2 45 7.2 72 72 NW 8 13 30.18 1022 10 16 0.00 0.00
6:12 pm 18:12 Cloudy 54 12 45 7 72 72 NNW 6 9 30.18 1022 10 16 0.00 0.00
6:53 pm 18:53 Cloudy 54 12.2 44 6.7 69 69 NW 7 11 30.18 1022 10 16 0.00 0.00
7:53 pm 19:53 Cloudy 52 11.1 42 5.6 69 69 NW 8 13 30.19 1022 10 16 0.00 0.00
8:53 pm 20:53 Cloudy 51 10.6 41 5 69 69 NW 5 7 30.18 1022 10 16 0.00 0.00
9:53 pm 21:53 Cloudy 50 10 39 3.9 66 66 W 6 9 30.19 1022 10 16 0.00 0.00
10:53 pm 22:53 Cloudy 49 9.4 38 3.3 66 66 WNW 9 15 30.19 1022 10 16 0.00 0.00
11:53 pm 23:53 Cloudy 47 8.3 40 4.4 77 77 NW 7 11 30.17 1022 10 16 0.01 0.25

Powered by AerisWeather